Stations météo

Publicité
Annecy-Meythet, France (7490): Température de l'air & dewpoint: 11.12.2017 03:00:00 - 17.12.2017 03:00:00 (CET)Annecy-Meythet, France (7490): Température de l'air 5cm: 11.12.2017 03:00:00 - 17.12.2017 03:00:00 (CET)Annecy-Meythet, France (7490): Température de l'air -20cm & Température de l'air -100cm: 11.12.2017 03:00:00 - 17.12.2017 03:00:00 (CET)Annecy-Meythet, France (7490): Vitesse du vent & gusts: 11.12.2017 03:00:00 - 17.12.2017 03:00:00 (CET)Annecy-Meythet, France (7490): Direction du vent: 11.12.2017 03:00:00 - 17.12.2017 03:00:00 (CET)Annecy-Meythet, France (7490): reduced air pressure: 11.12.2017 03:00:00 - 17.12.2017 03:00:00 (CET)Annecy-Meythet, France (7490): visibility: 11.12.2017 03:00:00 - 17.12.2017 03:00:00 (CET)Annecy-Meythet, France (7490): Quantités de précipitations: 11.12.2017 03:00:00 - 17.12.2017 03:00:00 (CET)
Date & Time tt [°C] td [°C] tt 5cm [°C] tt -20cm [°C] tt -100cm [°C] ff [km/h] ff [knt] fx [km/h] fx [knt] dd ppp [hPa] vv [km] rr [mm]
17.12.2017 03:00:00 0,5 -1,0 -0,2 3,2 7,0 0 0 9 5 N 1024,4 59 0,0
17.12.2017 02:00:00 0,5 -0,2 0,0 3,2 7,0 3 2 8 4 SSW 1023,9 12 0,2
17.12.2017 01:00:00 0,7 0,3 0,2 3,2 7,1 6 3 9 5 SSW 1023,7 10 0,0
17.12.2017 00:00:00 0,5 0,2 0,1 3,2 7,0 3 1 7 4 S 1023,5 3,6 0,0
16.12.2017 23:00:00 0,6 0,2 0,0 3,3 7,1 2 1 5 3 WNW 1023,1 4,9 0,0
16.12.2017 22:00:00 0,4 0,0 0,0 3,3 7,0 0 0 6 3 N 1022,7 3,8 0,2
16.12.2017 21:00:00 0,6 0,0 -0,5 3,3 7,0 0 0 3 2 N 1022,3 4,9 0,0
16.12.2017 20:00:00 0,7 0,0 -0,3 3,4 7,1 0 0 7 4 N 1021,5 9 0,0
16.12.2017 19:00:00 0,4 -0,2 -0,9 3,4 7,1 3 2 7 4 WNW 1020,7 8 0,0
16.12.2017 18:00:00 0,4 -0,3 -1,1 3,5 7,1 7 4 11 6 NE 1020,0 8 0,0
16.12.2017 17:00:00 1,4 0,1 -0,8 3,5 7,1 2 1 7 4 NW 1018,8 16 0,2
16.12.2017 16:00:00 2,9 0,8 2,7 3,5 7,1 3 2 6 3 NNE 1017,9 33 0,2
16.12.2017 15:00:00 2,8 0,5 2,0 3,4 7,1 0 0 6 3 N 1017,0 46 0,4
16.12.2017 14:00:00 2,4 0,3 2,0 3,4 7,1 4 2 6 3 SW 1016,8 40 0,4
16.12.2017 13:00:00 2,5 0,1 3,3 3,4 7,0 0 0 12 6 N 1016,4 10 0,8
16.12.2017 12:00:00 2,7 0,8 1,8 3,4 7,1 5 3 10 6 SW 1015,7 20 0,6
16.12.2017 11:00:00 1,6 0,4 1,2 3,4 7,0 0 0 4 2 N 1015,3 17 0,8
16.12.2017 10:00:00 0,9 0,2 0,1 3,4 7,1 0 0 4 2 N 1014,3 18 0,4
16.12.2017 09:00:00 0,5 0,1 0,1 3,4 7,1 0 0 3 1 N 1013,1 3,9 0,2
16.12.2017 08:00:00 0,6 0,0 0,1 3,5 7,0 0 0 5 3 N 1012,0 42 0,4
16.12.2017 07:00:00 0,5 0,2 0,1 3,5 7,0 2 1 6 3 SW 1010,8 56 0,4
16.12.2017 06:00:00 0,3 -0,1 0,0 3,6 7,0 0 0 13 7 N 1009,8 3,0 0,4
16.12.2017 05:00:00 0,8 0,1 0,1 3,7 7,1 8 4 23 12 SSW 1008,8 4,3 1,0
16.12.2017 04:00:00 1,2 0,5 0,1 3,7 7,0 9 5 19 11 SSW 1008,0 31 0,8
16.12.2017 03:00:00 0,4 0,3 0,0 3,7 7,0 4 2 8 4 W 1007,4 6 0,4
16.12.2017 02:00:00 0,2 -0,1 0,0 3,8 7,0 4 2 5 3 NE 1006,4 2,5 0,4
16.12.2017 01:00:00 0,5 0,1 0,1 3,9 7,1 0 0 8 4 N 1006,0 2,8 1,0
16.12.2017 00:00:00 0,6 0,0 0,0 4,0 7,0 3 1 17 9 E 1005,7 15 1,4
15.12.2017 23:00:00 2,0 0,8 1,2 4,1 7,0 8 4 18 10 NW 1004,7 50 0,0
15.12.2017 22:00:00 1,7 0,7 1,4 4,1 7,0 16 8 32 18 SE 1004,6 16 0,8
15.12.2017 21:00:00 2,4 1,2 0,7 4,2 7,0 3 2 9 5 W 1004,1 17 0,0
15.12.2017 20:00:00 3,0 0,7 1,9 4,2 7,0 0 0 22 12 N 1003,6 35 0,0
15.12.2017 19:00:00 3,7 0,6 2,9 4,3 7,0 13 7 22 12 ESE 1002,7 60 0,0
15.12.2017 18:00:00 3,8 1,0 3,1 4,3 7,0 8 4 16 8 ESE 1003,1 60 0,0
15.12.2017 17:00:00 4,2 1,2 3,5 4,3 7,0 10 6 19 11 ESE 1003,4 52 0,0
15.12.2017 16:00:00 4,6 1,3 4,0 4,3 7,0 12 6 18 10 ESE 1003,6 60 0,0
15.12.2017 15:00:00 4,8 1,5 4,5 4,2 7,0 9 5 16 9 E 1003,8 60 0,0
15.12.2017 14:00:00 6,0 1,7 4,5 4,1 7,0 7 4 11 6 E 1004,0 60 0,0
15.12.2017 13:00:00 5,5 1,6 4,7 4,0 7,0 9 5 12 7 E 1004,5 60 0,0
15.12.2017 12:00:00 4,1 0,8 4,0 3,9 7,0 3 2 18 10 SE 1005,8 60 0,0
15.12.2017 11:00:00 3,9 2,7 2,2 3,9 7,0 3 2 11 6 ESE 1006,4 19 0,4
15.12.2017 10:00:00 2,7 1,1 1,9 4,0 7,1 0 0 15 8 N 1006,2 19 0,0
15.12.2017 09:00:00 2,3 1,1 0,8 4,0 7,1 7 4 18 10 E 1005,6 60 0,0
15.12.2017 08:00:00 2,1 0,9 0,3 4,0 7,0 4 2 13 7 E 1005,6 60 0,2
15.12.2017 07:00:00 2,3 1,3 1,4 4,1 7,1 3 2 9 5 N 1005,4 20 0,0
15.12.2017 06:00:00 2,4 1,2 1,6 4,2 7,1 3 1 9 5 N 1005,4 57 0,2
15.12.2017 05:00:00 2,4 0,8 1,1 4,2 7,1 4 2 23 12 W 1005,5 60 0,8
15.12.2017 04:00:00 1,8 0,8 0,6 4,4 7,1 5 3 13 7 WSW 1006,0 10 1,6
15.12.2017 03:00:00 1,2 0,3 0,2 4,5 7,1 9 5 24 13 E 1005,2 14 2,2
15.12.2017 02:00:00 1,9 0,4 0,1 4,6 7,1 10 6 72 39 SW 1004,6 6 2,8
15.12.2017 01:00:00 9,0 2,3 5,7 4,6 7,1 28 15 60 32 SSW 999,8 18 0,4
15.12.2017 00:00:00 9,7 1,3 5,6 4,5 7,1 28 15 59 32 S 1000,3 60 0,8
14.12.2017 23:00:00 9,9 1,0 5,9 4,5 7,0 34 18 59 32 S 1000,8 58 0,2
14.12.2017 22:00:00 9,1 2,0 6,3 4,4 7,0 31 17 73 40 S 1002,4 10 0,2
14.12.2017 21:00:00 10,0 1,4 7,7 4,4 7,1 30 16 68 37 S 1002,1 60 0,0
14.12.2017 20:00:00 9,8 1,2 7,4 4,4 7,1 34 18 71 38 S 1002,3 59 0,0
14.12.2017 19:00:00 9,8 0,9 5,9 4,3 7,0 32 17 60 33 S 1003,1 60 0,2
14.12.2017 18:00:00 8,5 2,3 5,3 4,3 7,0 10 5 25 14 S 1003,8 58 0,0
14.12.2017 17:00:00 7,3 3,5 5,7 4,2 7,0 6 3 24 13 ESE 1005,0 20 0,0
14.12.2017 16:00:00 8,7 2,9 6,3 4,1 7,0 11 6 29 16 SSW 1005,9 19 0,2
14.12.2017 15:00:00 8,6 3,4 7,4 4,0 7,0 11 6 32 18 SSW 1006,6 60 0,0
14.12.2017 14:00:00 9,2 3,4 7,7 3,9 7,0 8 4 29 16 SSE 1007,2 60 0,0
14.12.2017 13:00:00 8,5 3,9 7,5 3,7 7,0 4 2 21 11 WSW 1008,8 20 0,0
14.12.2017 12:00:00 8,0 4,8 7,3 3,6 7,0 2 1 11 6 SSE 1009,6 58 0,0
14.12.2017 11:00:00 7,4 5,0 6,1 3,5 7,0 6 3 20 11 SSE 1010,7 50 0,0
14.12.2017 10:00:00 6,8 4,8 3,7 3,4 7,0 8 4 11 6 S 1010,8 60 0,0
14.12.2017 09:00:00 4,8 4,2 3,7 3,4 7,0 2 1 13 7 WSW 1011,3 7 0,2
14.12.2017 08:00:00 4,6 4,0 3,7 3,3 7,0 7 4 12 6 NE 1011,1 13 0,4
14.12.2017 07:00:00 4,8 3,9 3,7 3,3 7,0 5 3 20 11 N 1011,6 18 0,2
14.12.2017 06:00:00 6,0 4,3 3,4 3,3 7,0 13 7 29 16 SW 1011,8 8 0,6
14.12.2017 05:00:00 4,9 4,0 3,6 3,2 7,0 5 3 12 7 - 1010,6 10 0,0
14.12.2017 04:00:00 4,7 3,8 3,4 3,2 7,0 5 3 9 5 W 1011,0 19 0,4
14.12.2017 03:00:00 4,3 3,9 3,0 3,1 7,0 4 2 9 5 E 1011,5 15 0,4
14.12.2017 02:00:00 3,8 3,2 3,2 3,1 7,0 2 1 15 8 SSW 1011,5 10 0,6
14.12.2017 01:00:00 3,3 3,0 2,5 3,0 7,0 3 2 8 4 E 1011,6 8 0,8
14.12.2017 00:00:00 3,6 2,7 2,7 3,0 7,0 8 4 22 12 SE 1012,4 6 0,4
13.12.2017 23:00:00 3,7 2,7 2,0 3,0 7,0 16 9 32 17 SE 1012,2 13 0,4
13.12.2017 22:00:00 2,7 2,3 1,4 3,0 7,0 10 5 20 11 S 1012,5 4,7 1,2
13.12.2017 21:00:00 1,5 0,9 1,3 3,0 7,0 4 2 16 8 SE 1013,4 4,1 1,6
13.12.2017 20:00:00 1,4 0,5 1,1 3,0 7,0 6 3 23 12 SSE 1013,8 7 0,6
13.12.2017 19:00:00 1,2 0,3 1,1 3,0 6,9 8 4 29 15 SSE 1015,9 6 0,2
13.12.2017 18:00:00 2,5 0,2 0,9 3,0 6,9 17 9 31 17 SE 1016,5 9 0,4
13.12.2017 17:00:00 1,5 -1,4 0,8 3,0 6,9 0 0 16 9 N 1017,5 10 0,0
13.12.2017 16:00:00 2,5 -2,4 1,9 2,9 6,9 11 6 22 12 S 1017,7 10 0,0
13.12.2017 15:00:00 2,1 -1,7 2,3 2,8 6,9 5 3 12 7 SSW 1018,0 48 0,0
13.12.2017 14:00:00 2,0 -0,9 2,8 2,7 6,9 10 5 16 9 SSW 1018,0 31 0,0
13.12.2017 13:00:00 2,0 -1,6 3,0 2,7 6,9 3 2 16 8 S 1018,6 31 0,0
13.12.2017 12:00:00 1,4 -1,3 3,1 2,6 6,8 4 2 16 9 SSW 1020,0 19 0,0
13.12.2017 11:00:00 1,7 -2,6 - 2,7 6,8 0 0 6 3 N 1021,3 20 -
13.12.2017 10:00:00 - - - - - 2 1 6 3 N - 17 -
13.12.2017 09:00:00 - - - - - 0 0 0 0 N - 11 0,0
13.12.2017 08:00:00 - - - - - 0 0 0 0 N - 10 0,0
13.12.2017 07:00:00 - - - - - 0 0 0 0 N - 12 0,0
13.12.2017 06:00:00 - - - - - 0 0 0 0 N - 6 0,0
13.12.2017 05:00:00 - - - - - 0 0 0 0 N - 12 0,0
13.12.2017 04:00:00 - - - - - 0 0 0 0 N - 8 -
13.12.2017 03:00:00 - - - - - 0 0 0 0 N - 9 0,0
13.12.2017 02:00:00 - - - - - 0 0 0 0 N - 9 -
13.12.2017 01:00:00 - - - - - 0 0 0 0 N - 0,4 -
13.12.2017 00:00:00 - - - - - 0 0 0 0 N - 8 0,0
12.12.2017 23:00:00 - - - - - 0 0 0 0 N - 0,5 0,0
12.12.2017 22:00:00 - - - - - 0 0 0 0 N - 0,3 0,0
12.12.2017 21:00:00 - - - - - 0 0 7 4 N - 9 0,0
12.12.2017 20:00:00 - - - - - 5 3 9 5 N - 7 0,0
12.12.2017 19:00:00 - - - - - 4 2 10 5 NNW - 12 -
12.12.2017 18:00:00 - - - - - 5 3 8 4 NW - 14 -
12.12.2017 17:00:00 - - - - - 0 0 4 2 N - 10 -
12.12.2017 16:00:00 - - - - - 4 2 8 4 S - 40 -
12.12.2017 15:00:00 - - - - - 3 2 7 4 SE - 20 -
12.12.2017 14:00:00 - - - - - 0 0 5 3 N - 17 -
12.12.2017 13:00:00 - - - - - 0 0 5 3 N - 19 -
12.12.2017 12:00:00 - - - - - 0 0 2 1 N - 7 -
12.12.2017 11:00:00 - - - - - 0 0 2 1 N - 4,1 -
12.12.2017 10:00:00 - - - - - 2 1 11 6 SSE - 1,0 -
12.12.2017 09:00:00 - - - - - 5 3 19 10 W - 8 -
12.12.2017 08:00:00 - - - - - 3 1 10 5 NNW - 50 -
12.12.2017 07:00:00 - - - - - 3 2 6 3 W - 29 -
12.12.2017 06:00:00 - - - - - 4 2 8 4 WNW - 33 -
12.12.2017 05:00:00 - - - - - 0 0 9 5 N - 20 -
12.12.2017 04:00:00 - - - - - 3 1 23 13 SSW - 8 -
12.12.2017 03:00:00 - - - - - 9 5 24 13 W - 7 -
12.12.2017 02:00:00 - - - - - 5 3 11 6 W - 14 -
12.12.2017 01:00:00 - - - - - 6 4 16 8 SSE - 48 -
12.12.2017 00:00:00 - - - - - 3 2 16 9 N - 15 -
11.12.2017 23:00:00 - - - - - 13 7 24 13 ESE - 50 -
11.12.2017 22:00:00 - - - - - 15 8 32 18 ESE - 32 -
11.12.2017 21:00:00 - - - - - 26 14 38 21 ESE - 28 -
11.12.2017 20:00:00 - - - - - 8 4 17 9 ESE - 10 -
11.12.2017 19:00:00 - - - - - 5 3 12 6 - - 8 -
11.12.2017 18:00:00 - - - - - 4 2 14 7 SSE - 4,9 -
11.12.2017 17:00:00 - - - - - 11 6 28 15 SE - 10 -
11.12.2017 16:00:00 - - - - - 16 9 34 19 S - 5 -
11.12.2017 15:00:00 - - - - - 22 12 38 21 S - 9 -
11.12.2017 14:00:00 - - - - - 9 5 15 8 SE - 7 -
11.12.2017 13:00:00 - - - - - 3 1 10 5 E - 6 -
11.12.2017 12:00:00 - - - - - 4 2 9 5 WNW - 7 -
11.12.2017 11:00:00 - - - - - 3 2 9 5 WNW - 5 -
11.12.2017 10:00:00 - - - - - 4 2 19 10 - - 10 -
11.12.2017 09:00:00 - - - - - 13 7 20 11 NE - 19 -
11.12.2017 08:00:00 - - - - - 5 3 9 5 NNW - 9 -
11.12.2017 07:00:00 - - - - - 0 0 11 6 N - 7 -
11.12.2017 06:00:00 - - - - - 8 4 19 11 ESE - 52 -
11.12.2017 05:00:00 - - - - - 4 2 11 6 - - 10 -
11.12.2017 04:00:00 - - - - - 5 3 12 6 WNW - 20 -
11.12.2017 03:00:00 - - - - - 4 2 21 11 WNW - 17 -

tt = Température de l'air
td = dewpoint
tt 5cm = Température de l'air 5cm
tt -20cm = Température de l'air -20cm
tt -100cm = Température de l'air -100cm
ff = Vitesse du vent
fx = gusts
dd = Direction du vent
ppp = reduced air pressure
vv = visibility
rr = Quantités de précipitations

stations d'obs. à proximité